Suceava, Romania

1:33 AM EEST on March 27, 2017 (GMT +0300)
Salcea

Weather History for LRSV - February, 2013

Change the Weather History Date:

Saturday, February 2, 2013

  Actual Average Record
Temperature  
Mean Temperature 32 °F -  
Max Temperature 37 °F - - ()
Min Temperature 28 °F - - ()
Degree Days  
Heating Degree Days 34    
Moisture  
Dew Point 27 °F    
Average Humidity 76    
Maximum Humidity 87    
Minimum Humidity 65    
Precipitation  
Precipitation 0.00 in - - ()
Sea Level Pressure  
Sea Level Pressure 29.47 in    
Wind  
Wind Speed 10 mph ()    
Max Wind Speed 20 mph    
Max Gust Speed -    
Visibility 6.2 miles    
Events      
T = Trace of Precipitation, MM = Missing Value Source: Averaged Metar Reports

Daily Weather History Graph

Daily Weather History Graph

Search for Another Location

Airport or City:

Trip Planner

Search our weather history database for the weather conditions in past years. The results will help you decide how hot, cold, wet, or windy it might be!

Date:

Astronomy

Feb. 02, 2013 Rise Set
Actual Time 7:40 AM EET 5:17 PM EET
Civil Twilight 7:07 AM EET 5:50 PM EET
Nautical Twilight 6:30 AM EET 6:27 PM EET
Astronomical Twilight 5:54 AM EET 7:03 PM EET
Moon No Moon Rise 10:06 AM EET (2/2)
Length of Visible Light 10h 43m
Length of Day
9h 37m
Waning Gibbous, 63% of the Moon is Illuminated
Feb 2
Waning Gibbous
Feb 3
Last Quarter
Feb 10
New
Feb 17
First Quarter
Feb 25
Full

Hourly Weather History & Observations

Time (EET) Temp. Windchill Dew Point Humidity Pressure Visibility Wind Dir Wind Speed Gust Speed Precip Events Conditions
12:00 AM 32.0 °F 24.2 °F 23.0 °F 69% 29.68 in - West 9.2 mph - N/A   Clear
1:00 AM 33.8 °F 24.3 °F 23.0 °F 65% 29.65 in - WSW 13.8 mph - N/A   Clear
2:00 AM 30.2 °F 21.9 °F 21.2 °F 69% 29.65 in - West 9.2 mph - N/A   Clear
3:00 AM 28.4 °F 21.2 °F 21.2 °F 74% 29.62 in - South 6.9 mph - N/A   Clear
4:00 AM 30.2 °F 23.4 °F 23.0 °F 75% 29.59 in - South 6.9 mph - N/A   Clear
5:00 AM 30.2 °F 23.4 °F 21.2 °F 69% 29.59 in - SSW 6.9 mph - N/A   Clear
5:30 AM 30.2 °F 21.9 °F 23.0 °F 75% 29.56 in - South 9.2 mph - N/A   Clear
6:00 AM 30.2 °F 21.9 °F 23.0 °F 75% 29.56 in - SSE 9.2 mph - N/A   Clear
6:30 AM 28.4 °F 21.2 °F 23.0 °F 80% 29.56 in 6.2 mi South 6.9 mph - N/A   Mostly Cloudy
7:00 AM 30.2 °F 23.4 °F 24.8 °F 80% 29.53 in - South 6.9 mph - N/A   Clear
7:30 AM 30.2 °F 23.4 °F 24.8 °F 80% 29.53 in 6.2 mi South 6.9 mph - N/A   Mostly Cloudy
8:00 AM 32.0 °F 23.0 °F 24.8 °F 75% 29.53 in - South 11.5 mph - N/A   Clear
8:30 AM 33.8 °F 24.3 °F 26.6 °F 75% 29.50 in - South 13.8 mph - N/A   Clear
9:00 AM 33.8 °F 25.3 °F 26.6 °F 75% 29.50 in 6.2 mi South 11.5 mph - N/A   Partly Cloudy
9:30 AM 35.6 °F 25.9 °F 26.6 °F 70% 29.47 in 6.2 mi South 16.1 mph - N/A   Partly Cloudy
10:00 AM 35.6 °F 25.9 °F 26.6 °F 70% 29.47 in 6.2 mi South 16.1 mph - N/A   Scattered Clouds
10:30 AM 35.6 °F 25.2 °F 26.6 °F 70% 29.44 in 6.2 mi South 18.4 mph - N/A   Scattered Clouds
11:00 AM 33.8 °F 24.3 °F 26.6 °F 75% 29.44 in - SSE 13.8 mph - N/A   Clear
11:30 AM 32.0 °F 23.0 °F 26.6 °F 80% 29.44 in - SSE 11.5 mph - N/A   Clear
12:00 PM 33.8 °F 23.5 °F 26.6 °F 75% 29.44 in - South 16.1 mph - N/A   Clear
12:30 PM 35.6 °F 25.2 °F 26.6 °F 70% 29.44 in - South 18.4 mph - N/A   Clear
1:00 PM 35.6 °F 25.2 °F 28.4 °F 75% 29.42 in - South 18.4 mph - N/A   Clear
1:30 PM 35.6 °F 24.8 °F 26.6 °F 70% 29.42 in - South 19.6 mph - N/A   Clear
2:00 PM 35.6 °F 25.2 °F 28.4 °F 75% 29.42 in - South 18.4 mph - N/A   Clear
2:30 PM 35.6 °F 25.9 °F 28.4 °F 75% 29.39 in - South 16.1 mph - N/A   Clear
3:00 PM 35.6 °F 25.2 °F 28.4 °F 75% 29.39 in - South 18.4 mph - N/A   Clear
3:30 PM 35.6 °F 26.6 °F 28.4 °F 75% 29.39 in - South 13.8 mph - N/A   Clear
4:00 PM 35.6 °F 27.5 °F 28.4 °F 75% 29.39 in - South 11.5 mph - N/A   Clear
4:30 PM 35.6 °F 27.5 °F 28.4 °F 75% 29.39 in - South 11.5 mph - N/A   Clear
5:00 PM 35.6 °F 29.9 °F 28.4 °F 75% 29.39 in - SSE 6.9 mph - N/A   Clear
5:30 PM 33.8 °F 27.7 °F 28.4 °F 81% 29.39 in - South 6.9 mph - N/A   Clear
6:00 PM 33.8 °F 27.7 °F 28.4 °F 81% 29.39 in - South 6.9 mph - N/A   Clear
6:30 PM 33.8 °F 26.4 °F 30.2 °F 87% 29.39 in - SSE 9.2 mph - N/A   Clear
7:00 PM 33.8 °F 29.6 °F 30.2 °F 87% 29.39 in - SSE 4.6 mph - N/A   Clear
7:30 PM 33.8 °F 27.7 °F 30.2 °F 87% 29.39 in - SSE 6.9 mph - N/A   Clear
8:00 PM 33.8 °F 27.7 °F 30.2 °F 87% 29.39 in - SSE 6.9 mph - N/A   Clear
8:30 PM 35.6 °F 31.7 °F 30.2 °F 81% 29.39 in - South 4.6 mph - N/A   Clear
9:00 PM 35.6 °F 31.7 °F 30.2 °F 81% 29.42 in - South 4.6 mph - N/A   Clear
10:00 PM 33.8 °F 26.4 °F 30.2 °F 87% 29.39 in - South 9.2 mph - N/A   Clear
11:00 PM 37.4 °F 30.8 °F 32.0 °F 81% 29.39 in - WSW 9.2 mph - N/A   Clear